CQ0XVC-11 Weather Reports


time (UTC)temp
C
wind
direction
speed
KPH
gust
KPH
rain 1hr
cm
rain 24hr
cm
rain mn
cm
humidity
%
barometer
mb
20260508132734 19 202 0.0 0.0 0.00 0.00 0.00 26 995.2
20260508132231 18 225 0.0 0.0 0.00 0.00 0.00 26 995.2
20260508131730 18 236 0.0 0.0 0.00 0.00 0.00 27 995.4
20260508131302 18 202 6.4 6.4 0.00 0.00 0.00 27 995.5
20260508131227 18 202 6.4 6.4 0.00 0.00 0.00 27 995.5
20260508130725 18 247 9.7 9.7 0.00 0.00 0.00 27 995.4
20260508130223 18 270 4.8 4.8 0.00 0.00 0.00 28 995.6
20260508125721 18 101 0.0 0.0 0.00 0.00 0.00 30 995.7
20260508125218 18 270 0.0 0.0 0.00 0.00 0.00 28 995.8
20260508124717 18 247 0.0 0.0 0.00 0.00 0.00 28 995.7
20260508124214 18 315 0.0 0.0 0.00 0.00 0.00 28 995.9
20260508123802 18 90 0.0 1.6 0.00 0.00 0.00 28 996.0
20260508123712 18 90 0.0 1.6 0.00 0.00 0.00 28 996.0
20260508123210 18 168 0.0 0.0 0.00 0.00 0.00 28 996.0
20260508122708 18 157 0.0 0.0 0.00 0.00 0.00 30 995.9
20260508122205 18 292 0.0 6.4 0.00 0.00 0.00 30 996.1
20260508121704 17 22 1.6 8.0 0.00 0.00 0.00 31 996.1
20260508121201 17 90 4.8 9.7 0.00 0.00 0.00 33 996.3
20260508120730 17 236 3.2 12.9 0.00 0.00 0.00 32 996.3
20260508120659 17 236 3.2 12.9 0.00 0.00 0.00 32 996.3
20260508120157 17 112 1.6 6.4 0.00 0.00 0.00 32 996.5
20260508115736 17 90 3.2 9.7 0.00 0.00 0.00 30 996.5
20260508115655 17 90 3.2 9.7 0.00 0.00 0.00 30 996.5
20260508115152 18 157 4.8 9.7 0.00 0.00 0.00 28 996.4
20260508114722 18 225 4.8 6.4 0.00 0.00 0.00 30 996.4
20260508114651 18 225 4.8 6.4 0.00 0.00 0.00 30 996.4
20260508114148 17 135 1.6 4.8 0.00 0.00 0.00 31 996.5
20260508113646 17 292 4.8 22.5 0.00 0.00 0.00 30 996.6
20260508113143 17 225 12.9 12.9 0.00 0.00 0.00 28 996.6
20260508112713 17 247 1.6 9.7 0.00 0.00 0.00 31 996.8
20260508112642 17 247 1.6 9.7 0.00 0.00 0.00 31 996.8
20260508112139 17 292 4.8 9.7 0.00 0.00 0.00 30 997.0
20260508111637 17 315 4.8 14.5 0.00 0.00 0.00 31 996.8
20260508111135 17 67 0.0 6.4 0.00 0.00 0.00 32 997.0
20260508110633 17 270 0.0 1.6 0.00 0.00 0.00 33 997.0
20260508110130 17 303 0.0 3.2 0.00 0.00 0.00 32 997.1
20260508105701 17 112 0.0 0.0 0.00 0.00 0.00 31 997.1
20260508105629 17 112 0.0 0.0 0.00 0.00 0.00 31 997.1
20260508105126 17 202 0.0 0.0 0.00 0.00 0.00 31 997.0
20260508104624 17 225 0.0 0.0 0.00 0.00 0.00 33 997.1
20260508104122 17 0 0.0 0.0 0.00 0.00 0.00 33 997.1
20260508103705 16 247 0.0 0.0 0.00 0.00 0.00 34 997.2
20260508103620 16 247 0.0 0.0 0.00 0.00 0.00 34 997.2
20260508103117 16 247 0.0 0.0 0.00 0.00 0.00 33 997.1
20260508102648 16 225 0.0 0.0 0.00 0.00 0.00 35 997.2
20260508102616 16 225 0.0 0.0 0.00 0.00 0.00 35 997.2
20260508102113 16 315 0.0 0.0 0.00 0.00 0.00 36 997.2
20260508101643 16 225 0.0 0.0 0.00 0.00 0.00 35 997.4
20260508101611 16 225 0.0 0.0 0.00 0.00 0.00 35 997.4
20260508101109 16 281 0.0 0.0 0.00 0.00 0.00 36 997.3
20260508100607 16 202 0.0 0.0 0.00 0.00 0.00 36 997.4
20260508100104 16 202 0.0 0.0 0.00 0.00 0.00 38 997.3
20260508095603 16 247 0.0 0.0 0.00 0.00 0.00 38 997.4
20260508095100 16 258 0.0 0.0 0.00 0.00 0.00 39 997.5
20260508094558 15 225 0.0 4.8 0.00 0.00 0.00 39 997.4
20260508094128 15 247 0.0 0.0 0.00 0.00 0.00 40 997.5
20260508094056 15 247 0.0 0.0 0.00 0.00 0.00 40 997.5
20260508093625 15 90 0.0 0.0 0.00 0.00 0.00 42 997.6
20260508093554 15 90 0.0 0.0 0.00 0.00 0.00 42 997.6
20260508093051 15 157 0.0 0.0 0.00 0.00 0.00 41 997.6
20260508092550 15 270 0.0 0.0 0.00 0.00 0.00 42 997.7
20260508092047 15 247 0.0 0.0 0.00 0.00 0.00 45 997.6
20260508091640 15 236 0.0 0.0 0.00 0.00 0.00 47 997.7
20260508091545 15 236 0.0 0.0 0.00 0.00 0.00 47 997.7
20260508091042 14 236 0.0 0.0 0.00 0.00 0.00 49 997.8
20260508090541 14 135 0.0 0.0 0.00 0.00 0.00 50 997.6
20260508090110 13 247 0.0 0.0 0.00 0.00 0.00 51 997.7
20260508090038 13 247 0.0 0.0 0.00 0.00 0.00 51 997.7
20260508085627 13 247 0.0 8.0 0.00 0.00 0.00 50 997.7
20260508085536 13 247 0.0 8.0 0.00 0.00 0.00 50 997.7
20260508085034 14 135 4.8 4.8 0.00 0.00 0.00 51 997.7
20260508084618 13 168 0.0 0.0 0.00 0.00 0.00 55 997.8
20260508084532 13 168 0.0 0.0 0.00 0.00 0.00 55 997.8
20260508084029 13 0 0.0 0.0 0.00 0.00 0.00 54 997.8
20260508083528 13 0 0.0 8.0 0.00 0.00 0.00 54 997.7
20260508083025 13 225 0.0 1.6 0.00 0.00 0.00 54 997.8
20260508082523 13 270 0.0 0.0 0.00 0.00 0.00 54 997.7
20260508082021 13 45 0.0 0.0 0.00 0.00 0.00 56 997.5
20260508081559 13 292 0.0 0.0 0.00 0.00 0.00 57 997.5
20260508081519 13 292 0.0 0.0 0.00 0.00 0.00 57 997.5
20260508081016 12 191 0.0 0.0 0.00 0.00 0.00 59 997.6
20260508080515 12 236 0.0 0.0 0.00 0.00 0.00 61 997.6
20260508080012 11 247 0.0 0.0 0.00 0.00 0.00 63 997.6
20260508075510 11 225 0.0 0.0 0.00 0.00 0.00 65 997.7
20260508075008 11 45 0.0 0.0 0.00 0.00 0.00 65 997.6
20260508074548 11 225 0.0 0.0 0.00 0.00 0.00 66 997.6
20260508074506 11 225 0.0 0.0 0.00 0.00 0.00 66 997.6
20260508074003 11 236 0.0 0.0 0.00 0.00 0.00 66 997.6
20260508073502 11 225 0.0 0.0 0.00 0.00 0.00 66 997.5
20260508072959 11 213 0.0 0.0 0.00 0.00 0.00 66 997.4
20260508072457 10 180 0.0 0.0 0.00 0.00 0.00 66 997.4
20260508071955 10 225 0.0 0.0 0.00 0.00 0.00 67 997.5
20260508071022 10 180 0.0 0.0 0.00 0.00 0.00 68 997.3
20260508070950 10 180 0.0 0.0 0.00 0.00 0.00 68 997.3
20260508070449 10 225 0.0 0.0 0.00 0.00 0.00 69 997.2
20260508065946 10 180 0.0 0.0 0.00 0.00 0.00 69 997.1
20260508065444 10 180 0.0 0.0 0.00 0.00 0.00 69 997.1
20260508064941 10 225 0.0 0.0 0.00 0.00 0.00 67 997.0
20260508064542 10 135 0.0 0.0 0.00 0.00 0.00 68 997.1
20260508064440 10 135 0.0 0.0 0.00 0.00 0.00 68 997.1
20260508063937 9 135 0.0 0.0 0.00 0.00 0.00 67 996.8
20260508063436 9 135 0.0 0.0 0.00 0.00 0.00 67 996.9
20260508062933 10 90 0.0 0.0 0.00 0.00 0.00 67 996.9
20260508062508 10 90 0.0 0.0 0.00 0.00 0.00 66 997.0
20260508062431 10 90 0.0 0.0 0.00 0.00 0.00 66 997.0
20260508061928 10 135 0.0 0.0 0.00 0.00 0.00 66 996.9
20260508061521 10 225 0.0 0.0 0.00 0.00 0.00 67 996.9
20260508061427 10 225 0.0 0.0 0.00 0.00 0.00 67 996.9
20260508060924 10 90 0.0 1.6 0.00 0.00 0.00 66 996.8
20260508060459 10 225 0.0 0.0 0.00 0.00 0.00 65 996.7
20260508060422 10 225 0.0 0.0 0.00 0.00 0.00 65 996.7
20260508060024 10 236 0.0 0.0 0.00 0.00 0.00 66 996.7
20260508055920 10 236 0.0 0.0 0.00 0.00 0.00 66 996.7
20260508055418 10 315 0.0 0.0 0.00 0.00 0.00 66 996.8
20260508054915 10 135 0.0 0.0 0.00 0.00 0.00 66 996.5
20260508054507 10 90 0.0 0.0 0.00 0.00 0.00 67 996.3
20260508054414 10 90 0.0 0.0 0.00 0.00 0.00 67 996.3
20260508053911 10 135 1.6 1.6 0.00 0.00 0.00 67 996.4
20260508053450 9 90 0.0 0.0 0.00 0.00 0.00 67 996.6
20260508053409 9 90 0.0 0.0 0.00 0.00 0.00 67 996.6
20260508052907 9 225 0.0 0.0 0.00 0.00 0.00 67 996.5
20260508052447 9 180 0.0 0.0 0.00 0.00 0.00 66 996.4
20260508052405 9 180 0.0 0.0 0.00 0.00 0.00 66 996.4
20260508051902 9 90 0.0 0.0 0.00 0.00 0.00 66 996.5
20260508051513 9 180 0.0 0.0 0.00 0.00 0.00 67 996.4
20260508051401 9 180 0.0 0.0 0.00 0.00 0.00 67 996.4
20260508050858 10 191 0.0 0.0 0.00 0.00 0.00 68 996.4
20260508050356 10 135 0.0 0.0 0.00 0.00 0.00 67 996.5
20260508045352 10 90 0.0 0.0 0.00 0.00 0.00 66 996.4
20260508044849 10 135 0.0 0.0 0.00 0.00 0.00 67 996.5
20260508044422 10 135 0.0 0.0 0.00 0.00 0.00 67 996.5
20260508044348 10 135 0.0 0.0 0.00 0.00 0.00 67 996.5
20260508043845 10 67 0.0 0.0 0.00 0.00 0.00 66 996.4
20260508043343 10 225 0.0 0.0 0.00 0.00 0.00 67 996.5
20260508042841 10 45 0.0 0.0 0.00 0.00 0.00 67 996.3
20260508042339 10 270 0.0 0.0 0.00 0.00 0.00 67 996.4
20260508041836 10 202 0.0 0.0 0.00 0.00 0.00 67 996.3
20260508041335 10 135 0.0 0.0 0.00 0.00 0.00 67 996.2
20260508040832 10 78 0.0 0.0 0.00 0.00 0.00 67 996.3
20260508040401 10 90 0.0 0.0 0.00 0.00 0.00 67 996.3
20260508040330 10 90 0.0 0.0 0.00 0.00 0.00 67 996.3
20260508035827 10 180 0.0 0.0 0.00 0.00 0.00 67 996.2
20260508035326 10 90 0.0 0.0 0.00 0.00 0.00 66 996.4
20260508034823 9 90 0.0 0.0 0.00 0.00 0.00 67 996.3
20260508034414 9 270 0.0 0.0 0.00 0.00 0.00 68 996.1
20260508034321 9 270 0.0 0.0 0.00 0.00 0.00 68 996.1
20260508033819 9 135 0.0 0.0 0.00 0.00 0.00 67 996.2
20260508033317 9 270 0.0 0.0 0.00 0.00 0.00 68 996.2
20260508032814 9 135 0.0 0.0 0.00 0.00 0.00 67 996.4
20260508032347 9 90 0.0 0.0 0.00 0.00 0.00 67 996.3
20260508032313 9 90 0.0 0.0 0.00 0.00 0.00 67 996.3
20260508031810 10 135 0.0 0.0 0.00 0.00 0.00 67 996.3
20260508031308 10 180 0.0 0.0 0.00 0.00 0.00 67 996.5
20260508030806 10 90 0.0 0.0 0.00 0.00 0.00 67 996.5
20260508030304 10 270 0.0 0.0 0.00 0.00 0.00 67 996.3
20260508025801 10 135 0.0 0.0 0.00 0.00 0.00 66 996.5
20260508025300 10 135 0.0 0.0 0.00 0.00 0.00 67 996.4
20260508024757 10 315 0.0 0.0 0.00 0.00 0.00 68 996.4
20260508024341 10 270 0.0 0.0 0.00 0.00 0.00 67 996.4
20260508024255 10 270 0.0 0.0 0.00 0.00 0.00 67 996.4
20260508023841 10 270 0.0 0.0 0.00 0.00 0.00 67 996.7
20260508023753 10 270 0.0 0.0 0.00 0.00 0.00 67 996.7
20260508023251 10 180 0.0 0.0 0.00 0.00 0.00 67 996.6
20260508022748 10 180 0.0 0.0 0.00 0.00 0.00 67 996.6
20260508022247 10 78 0.0 0.0 0.00 0.00 0.00 66 996.5
20260508021242 10 225 0.0 0.0 0.00 0.00 0.00 72 996.7
20260508020740 10 0 0.0 0.0 0.00 0.00 0.00 67 996.7
20260508020310 10 180 0.0 0.0 0.00 0.00 0.00 67 996.7
20260508020238 10 180 0.0 0.0 0.00 0.00 0.00 67 996.7
20260508015735 10 225 0.0 0.0 0.00 0.00 0.00 67 996.9
20260508015316 10 45 0.0 0.0 0.00 0.00 0.00 67 996.9
20260508015234 10 45 0.0 0.0 0.00 0.00 0.00 67 996.9
20260508014731 10 315 0.0 0.0 0.00 0.00 0.00 66 996.9
20260508014229 10 180 0.0 0.0 0.00 0.00 0.00 68 996.9
20260508013726 10 270 0.0 0.0 0.00 0.00 0.00 69 996.8
20260508013225 10 225 0.0 0.0 0.00 0.00 0.00 66 996.8
20260508012722 10 292 0.0 0.0 0.00 0.00 0.00 66 996.9
20260508012220 10 270 0.0 0.0 0.00 0.00 0.00 65 997.1
20260508011718 10 225 0.0 0.0 0.00 0.00 0.00 66 996.8
20260508011216 10 45 0.0 0.0 0.00 0.00 0.00 67 997.2
20260508010713 10 191 0.0 0.0 0.00 0.00 0.00 67 997.2
20260508010212 10 90 0.0 0.0 0.00 0.00 0.00 67 996.9
20260508005709 10 180 0.0 0.0 0.00 0.00 0.00 68 996.9
20260508005207 10 90 0.0 0.0 0.00 0.00 0.00 66 997.1
20260508004705 10 180 0.0 0.0 0.00 0.00 0.00 67 997.0
20260508004203 10 180 0.0 0.0 0.00 0.00 0.00 66 997.0
20260508003700 10 90 0.0 0.0 0.00 0.00 0.00 65 997.1
20260508002656 11 180 0.0 0.0 0.00 0.00 0.00 66 997.1
20260508002154 11 180 0.0 0.0 0.00 0.00 0.00 65 997.2
20260508001652 11 180 0.0 0.0 0.00 0.00 0.00 65 997.1
20260508001233 11 90 0.0 0.0 0.00 0.00 0.00 65 997.1
20260508001150 11 90 0.0 0.0 0.00 0.00 0.00 65 997.1
20260508000647 11 225 0.0 0.0 0.00 0.00 0.00 65 997.3
20260508000230 11 135 0.0 0.0 0.00 0.00 0.00 66 997.2
20260508000146 11 135 0.0 0.0 0.00 0.00 0.00 66 997.2
20260507235643 11 135 0.0 0.0 0.00 0.00 0.00 65 997.1
20260507235142 11 180 0.0 0.0 0.00 0.00 0.00 64 997.2
20260507234639 11 135 0.0 0.0 0.00 0.00 0.00 64 997.2
20260507234218 11 135 0.0 0.0 0.00 0.00 0.00 64 997.3
20260507234137 11 135 0.0 0.0 0.00 0.00 0.00 64 997.3
20260507233634 11 135 0.0 0.0 0.00 0.00 0.00 64 997.5
20260507233213 11 225 0.0 0.0 0.00 0.00 0.00 64 997.5
20260507233133 11 225 0.0 0.0 0.00 0.00 0.00 64 997.5
20260507232128 11 180 0.0 0.0 0.00 0.00 0.00 63 997.5
20260507231626 11 225 0.0 0.0 0.00 0.00 0.00 63 997.5
20260507231124 11 180 0.0 0.0 0.00 0.00 0.00 64 997.4
20260507230621 11 315 0.0 0.0 0.00 0.00 0.00 63 997.7
20260507230120 11 270 0.0 0.0 0.00 0.00 0.00 63 997.7
20260507225617 11 270 0.0 0.0 0.00 0.00 0.00 64 997.8
20260507225115 11 315 0.0 0.0 0.00 0.00 0.00 63 997.7
20260507224651 11 315 0.0 0.0 0.00 0.00 0.00 63 997.8
20260507224612 11 315 0.0 0.0 0.00 0.00 0.00 63 997.8
20260507224150 11 258 0.0 0.0 0.00 0.00 0.00 63 997.9
20260507224111 11 258 0.0 0.0 0.00 0.00 0.00 63 997.9
20260507223608 11 315 0.0 0.0 0.00 0.00 0.00 63 997.8
20260507222604 11 292 0.0 0.0 0.00 0.00 0.00 63 997.9
20260507222133 11 270 0.0 0.0 0.00 0.00 0.00 63 998.2
20260507222102 11 270 0.0 0.0 0.00 0.00 0.00 63 998.2
20260507221148 11 303 0.0 0.0 0.00 0.00 0.00 62 998.0
20260507221058 11 303 0.0 0.0 0.00 0.00 0.00 62 998.0
20260507220555 11 270 0.0 0.0 0.00 0.00 0.00 63 998.1
20260507220140 11 292 0.0 0.0 0.00 0.00 0.00 62 998.3
20260507220053 11 292 0.0 0.0 0.00 0.00 0.00 62 998.3
20260507215551 11 337 0.0 0.0 0.00 0.00 0.00 62 998.4
20260507215049 11 292 0.0 1.6 0.00 0.00 0.00 62 998.3
20260507214630 11 270 0.0 0.0 0.00 0.00 0.00 61 998.2
20260507214546 11 270 0.0 0.0 0.00 0.00 0.00 61 998.2
20260507214045 11 315 0.0 0.0 0.00 0.00 0.00 61 998.2
20260507213542 11 315 0.0 0.0 0.00 0.00 0.00 61 998.3
20260507213125 11 292 0.0 0.0 0.00 0.00 0.00 60 998.2
20260507213040 11 292 0.0 0.0 0.00 0.00 0.00 60 998.2
20260507212626 12 303 0.0 0.0 0.00 0.00 0.00 60 998.3
20260507212538 12 303 0.0 0.0 0.00 0.00 0.00 60 998.3
20260507212036 12 292 0.0 0.0 0.00 0.00 0.00 60 998.4
20260507211640 12 270 0.0 0.0 0.00 0.00 0.00 59 998.4
20260507211533 12 270 0.0 0.0 0.00 0.00 0.00 59 998.4
20260507211118 12 315 0.0 0.0 0.00 0.00 0.00 59 998.5
20260507211032 12 315 0.0 0.0 0.00 0.00 0.00 59 998.5
20260507210529 12 315 0.0 0.0 0.00 0.00 0.00 58 998.4
20260507210111 12 270 0.0 0.0 0.00 0.00 0.00 58 998.4
20260507210027 12 270 0.0 0.0 0.00 0.00 0.00 58 998.4
20260507205525 12 270 0.0 0.0 0.00 0.00 0.00 58 998.3
20260507205023 12 247 0.0 0.0 0.00 0.00 0.00 57 998.2
20260507204612 12 303 0.0 0.0 0.00 0.00 0.00 58 998.2
20260507204520 12 303 0.0 0.0 0.00 0.00 0.00 58 998.2
20260507204104 12 270 0.0 0.0 0.00 0.00 0.00 57 998.0
20260507204019 12 270 0.0 0.0 0.00 0.00 0.00 57 998.0
20260507203516 12 315 0.0 0.0 0.00 0.00 0.00 57 998.1
20260507203121 12 315 0.0 0.0 0.00 0.00 0.00 56 997.9
20260507203014 12 315 0.0 0.0 0.00 0.00 0.00 56 997.9
20260507202511 12 270 0.0 0.0 0.00 0.00 0.00 56 998.0
20260507202047 12 225 0.0 0.0 0.00 0.00 0.00 55 997.9
20260507202010 12 225 0.0 0.0 0.00 0.00 0.00 55 997.9
20260507201539 12 270 0.0 0.0 0.00 0.00 0.00 55 997.7
20260507201507 12 270 0.0 0.0 0.00 0.00 0.00 55 997.7
20260507201105 12 270 0.0 0.0 0.00 0.00 0.00 54 997.7
20260507201006 12 270 0.0 0.0 0.00 0.00 0.00 54 997.7
20260507200503 12 292 0.0 0.0 0.00 0.00 0.00 53 997.6
20260507200042 13 292 0.0 0.0 0.00 0.00 0.00 53 997.6
20260507200001 13 292 0.0 0.0 0.00 0.00 0.00 53 997.6
20260507195536 13 292 0.0 0.0 0.00 0.00 0.00 53 997.7
20260507195458 13 292 0.0 0.0 0.00 0.00 0.00 53 997.7
20260507195036 13 292 0.0 0.0 0.00 0.00 0.00 53 997.5
20260507194957 13 292 0.0 0.0 0.00 0.00 0.00 53 997.5
20260507194536 13 326 0.0 0.0 0.00 0.00 0.00 53 997.5
20260507194454 13 326 0.0 0.0 0.00 0.00 0.00 53 997.5
20260507194040 13 225 0.0 0.0 0.00 0.00 0.00 51 997.4
20260507193952 13 225 0.0 0.0 0.00 0.00 0.00 51 997.4
20260507193450 13 90 0.0 0.0 0.00 0.00 0.00 51 997.5
20260507192948 13 270 0.0 0.0 0.00 0.00 0.00 51 997.3
20260507192518 13 270 0.0 0.0 0.00 0.00 0.00 51 997.4
20260507192445 13 270 0.0 0.0 0.00 0.00 0.00 51 997.4
20260507192047 13 202 0.0 0.0 0.00 0.00 0.00 51 997.3
20260507191944 13 202 0.0 0.0 0.00 0.00 0.00 51 997.3
20260507191512 13 225 0.0 0.0 0.00 0.00 0.00 51 997.4
20260507191441 13 225 0.0 0.0 0.00 0.00 0.00 51 997.4
20260507191030 13 101 0.0 0.0 0.00 0.00 0.00 51 997.2
20260507190939 13 101 0.0 0.0 0.00 0.00 0.00 51 997.2
20260507190437 13 281 0.0 0.0 0.00 0.00 0.00 51 997.2
20260507190013 13 315 0.0 0.0 0.00 0.00 0.00 50 997.2
20260507185935 13 315 0.0 0.0 0.00 0.00 0.00 50 997.2
20260507185432 13 67 0.0 0.0 0.00 0.00 0.00 50 997.1
20260507185013 13 292 0.0 0.0 0.00 0.00 0.00 50 997.2
20260507184931 13 292 0.0 0.0 0.00 0.00 0.00 50 997.2
20260507184504 13 292 0.0 0.0 0.00 0.00 0.00 50 997.2
20260507184428 13 292 0.0 0.0 0.00 0.00 0.00 50 997.2
20260507184010 14 270 0.0 0.0 0.00 0.00 0.00 49 997.2
20260507183926 14 270 0.0 0.0 0.00 0.00 0.00 49 997.2
20260507183424 14 315 0.0 0.0 0.00 0.00 0.00 48 997.0
20260507182922 14 315 0.0 0.0 0.00 0.00 0.00 47 996.8
20260507182419 14 180 0.0 0.0 0.00 0.00 0.00 47 996.8
20260507181959 14 270 0.0 0.0 0.00 0.00 0.00 46 996.9
20260507181918 14 270 0.0 0.0 0.00 0.00 0.00 46 996.9
20260507181415 15 315 0.0 0.0 0.00 0.00 0.00 47 996.8
20260507180948 15 292 0.0 0.0 0.00 0.00 0.00 46 996.8
20260507180913 15 292 0.0 0.0 0.00 0.00 0.00 46 996.8
20260507180411 15 315 0.0 0.0 0.00 0.00 0.00 46 996.6
20260507180009 15 270 0.0 0.0 0.00 0.00 0.00 46 996.6
20260507175909 15 270 0.0 0.0 0.00 0.00 0.00 46 996.6
20260507175406 15 303 0.0 0.0 0.00 0.00 0.00 45 996.5
20260507174905 15 270 0.0 0.0 0.00 0.00 0.00 44 996.3
20260507174402 15 270 0.0 0.0 0.00 0.00 0.00 43 996.3
20260507173934 16 292 0.0 0.0 0.00 0.00 0.00 43 996.2
20260507173900 16 292 0.0 0.0 0.00 0.00 0.00 43 996.2
20260507173358 16 292 0.0 0.0 0.00 0.00 0.00 43 996.4
20260507172949 16 292 0.0 0.0 0.00 0.00 0.00 41 996.2
20260507172856 16 292 0.0 0.0 0.00 0.00 0.00 41 996.2
20260507172353 16 326 0.0 0.0 0.00 0.00 0.00 41 996.2
20260507171929 17 303 0.0 0.0 0.00 0.00 0.00 39 996.2
20260507171852 17 303 0.0 0.0 0.00 0.00 0.00 39 996.2
20260507171448 17 270 0.0 0.0 0.00 0.00 0.00 40 996.1
20260507171349 17 270 0.0 0.0 0.00 0.00 0.00 40 996.1
20260507170925 16 292 0.0 0.0 0.00 0.00 0.00 39 996.1
20260507170847 16 292 0.0 0.0 0.00 0.00 0.00 39 996.1
20260507170344 17 292 0.0 0.0 0.00 0.00 0.00 38 996.0
20260507165937 17 303 0.0 0.0 0.00 0.00 0.00 38 996.0
20260507165843 17 303 0.0 0.0 0.00 0.00 0.00 38 996.0
20260507165340 17 292 0.0 0.0 0.00 0.00 0.00 38 995.9
20260507164839 17 292 0.0 0.0 0.00 0.00 0.00 37 995.9
20260507164336 17 281 0.0 0.0 0.00 0.00 0.00 37 995.9
20260507163908 17 270 0.0 4.8 0.00 0.00 0.00 36 996.0
20260507163834 17 270 0.0 4.8 0.00 0.00 0.00 36 996.0
20260507163331 17 270 0.0 0.0 0.00 0.00 0.00 36 995.8
20260507162923 18 281 8.0 12.9 0.00 0.00 0.00 36 995.9
20260507162830 18 281 8.0 12.9 0.00 0.00 0.00 36 995.9
20260507162327 18 270 16.1 16.1 0.00 0.00 0.00 35 995.8
20260507161825 18 270 6.4 9.7 0.00 0.00 0.00 32 995.9
20260507161323 18 315 9.7 14.5 0.00 0.00 0.00 31 995.8
20260507160821 18 315 8.0 14.5 0.00 0.00 0.00 32 995.7
20260507160318 18 315 11.3 11.3 0.00 0.00 0.00 32 995.9
20260507155901 17 78 3.2 11.3 0.00 0.00 0.00 33 995.7
20260507155817 17 78 3.2 11.3 0.00 0.00 0.00 33 995.7
20260507155351 17 67 6.4 12.9 0.00 0.00 0.00 33 995.7
20260507155314 17 67 6.4 12.9 0.00 0.00 0.00 33 995.7
20260507154812 17 292 11.3 20.9 0.00 0.00 0.00 33 995.9
20260507154310 18 315 16.1 16.1 0.00 0.00 0.00 32 995.9
20260507153808 18 315 6.4 19.3 0.00 0.00 0.00 31 996.0
20260507153346 19 270 12.9 14.5 0.00 0.00 0.00 30 995.9
20260507153306 19 270 12.9 14.5 0.00 0.00 0.00 30 995.9
20260507152804 19 270 4.8 14.5 0.00 0.00 0.00 26 996.0
20260507152741 18 225 0.0 0.0 0.00 0.00 0.00 29 995.9
20260507152301 19 258 0.0 0.0 0.00 0.00 0.00 26 995.9
20260507151849 18 225 0.0 0.0 0.00 0.00 0.00 29 995.9
20260507151759 18 225 0.0 0.0 0.00 0.00 0.00 29 995.9
20260507151257 18 270 0.0 0.0 0.00 0.00 0.00 29 995.9
20260507150835 18 180 0.0 0.0 0.00 0.00 0.00 29 996.1
20260507150755 18 180 0.0 0.0 0.00 0.00 0.00 29 996.1
20260507150252 18 281 0.0 0.0 0.00 0.00 0.00 28 996.0
20260507145751 19 247 0.0 3.2 0.00 0.00 0.00 26 996.0
20260507145248 19 292 0.0 0.0 0.00 0.00 0.00 25 996.1
20260507144827 19 213 0.0 1.6 0.00 0.00 0.00 25 996.3
20260507144746 19 213 0.0 1.6 0.00 0.00 0.00 25 996.3
20260507144244 20 315 0.0 0.0 0.00 0.00 0.00 25 996.2
20260507143742 19 225 0.0 0.0 0.00 0.00 0.00 24 996.3
20260507143239 18 270 0.0 0.0 0.00 0.00 0.00 28 996.2
20260507142738 18 270 0.0 0.0 0.00 0.00 0.00 28 996.4
20260507142235 18 292 0.0 0.0 0.00 0.00 0.00 28 996.5
20260507141809 18 315 0.0 0.0 0.00 0.00 0.00 28 996.6
20260507141733 18 315 0.0 0.0 0.00 0.00 0.00 28 996.6
20260507141231 18 225 0.0 0.0 0.00 0.00 0.00 28 996.6
20260507140729 18 270 0.0 0.0 0.00 0.00 0.00 27 996.6
20260507140257 18 315 0.0 14.5 0.00 0.00 0.00 26 996.6
20260507140226 18 315 0.0 14.5 0.00 0.00 0.00 26 996.6
20260507135725 18 270 6.4 12.9 0.00 0.00 0.00 27 996.7
20260507135222 18 292 8.0 16.1 0.00 0.00 0.00 28 996.7
20260507134217 18 135 0.0 4.8 0.00 0.00 0.00 27 996.7
20260507133716 18 270 0.0 9.7 0.00 0.00 0.00 27 996.7